DECAYED
Showing default

PLATFORM-1, 52770 (Decayed)

Orbit data source: Space-Track

PLATFORM-1, 52770 was a payload satellite owned by Endurosat (BG) in LEO that was launched on Wed, 25 May 2022 UTC via an FALCON 9 launch vehicle from the Air Force Eastern Test Range (AFETR). Payload-class satellites include a variety of spacecraft equipped with specific instruments for various scientific and technological missions. These include communications satellites like Starlink; space stations such as the ISS; scientific satellites like the Hubble; Earth observation satellites from companies like Planet Labs, Umbra, and HawkEye 360; GPS; miniature CubeSats for education and research; and military/defense satellites.

Not visible in the next 10 days
Identifier
52770, 2022-057AQ
Orbit
Decayed
Country
Flag of BGBG / BGR
Related business
Manufacturer
Endurosat
Mission
Decayed Commercial Technology
Bus & Motor
CUBESAT 6U, Unknown motor
Mass
~10 kg wet, ~10 kg dry
Launch date (UTC)
2022-05-25 (4 years ago)
Launch vehicle
FALCON 9
Launch site
Air Force Eastern Test Range (AFETR)
Object type
Payload
Rocket body
Debris
Shape & HBR
Box + 2 Pan, 0.1 m
Radar Cross Section
0.080 m², Medium (>0.1 m² and < 1m²)

Expand to show TLE details & history
Last TLE update: 3 months ago

TLE from 3 months ago
0 PLATFORM-1
1 52770U 22057AQ  25269.24431773  .16420677  37577-5  24958-3 0  9990
2 52770  97.5905  64.5687 0014057 267.2240  92.7453 16.47667105186619
Epoch: 2025-09-26T05:51Z
TLE epoch observation values (Epoch: 2025-09-26T05:51:49.051Z)
Latitude
-0.00015°
Longitude
-28.67953°
Altitude
149.194 km
Speed
7.816 km/s
True Right ascension
04h 18m 16s
True Declination
0° 00' 01"
Sunlit
Object was in full shadow at epoch
Visualization orbit readout
Latitude
Unknown
Longitude
Unknown
Altitude
Unknown
Speed
Unknown
Apparent Right ascension
Unknown
Apparent Declination
Unknown
Sunlit
N/A
Visualization observer readout
Local Sidereal Time
13:24:40
Azimuth
Unknown
Elevation
Unknown
Doppler factor
Unknown
Orbital elements
Apogee altitude
151.458 km
Perigee altitude
133.127 km
Semi-major axis
6,520.429 km
Eccentricity
0.00141
Inclination
97.5905°
RAAN
64.5687°
Arg. of periapsis
267.224°
True anomaly
92.90618°
Mean anomaly
92.7453°
Eccentric anomaly
92.82574°
Mean motion
4.1222 °/min
Orbital period
87.33 mins
BSTAR
0.00024958
Loading maneuver chart data...
Computing Atmospheric mass density...

Documentation

Showing up to 5 results
|